Estación Meteorológica Peña el Pijo (Robertgarden) [ 09/30/20 01:47:28 CEST ]

Fecha Hora Presion(HPa) Temp (°C) Humedad % Rocio (°C) Viento ( m/s) Direccion Lluvia 1Hora(mm) Lluvia 24H(mm) LLuvia Total(mm)
2020-Apr-11 01:08:59 1012.000 - - - - W     39.88
2020-Apr-11 02:08:56 1011.800 - - - - W     39.88
2020-Apr-11 03:09:04 1011.200 - - - - W     39.88
2020-Apr-11 04:08:37 1010.600 - - - - W     39.88
2020-Apr-11 05:09:02 1010.700 - - - - W     39.88
2020-Apr-11 06:09:09 1010.800 - - - - W     39.88
2020-Apr-11 07:09:51 1010.600 - - - - W     39.88
2020-Apr-11 08:10:12 1011.000 - - - - W     39.88
2020-Apr-11 09:10:45 1011.000 - - - - W     39.88
2020-Apr-11 10:10:11 1011.000 - - - - W     39.88
2020-Apr-11 11:09:07 1011.100 - - - - W     39.88
2020-Apr-11 12:09:05 1011.000 - - - - W     39.88
2020-Apr-11 13:09:28 1010.500 - - - - W     39.88
2020-Apr-11 14:09:05 1009.800 - - - - W     39.88
2020-Apr-11 15:09:25 1009.600 - - - - W     39.88
2020-Apr-11 16:08:57 1009.400 - - - - W     39.88
2020-Apr-11 17:09:32 1009.100 - - - - W     39.88
2020-Apr-11 18:09:37 1008.800 - - - - W     39.88
2020-Apr-11 19:09:17 1009.100 - - - - W     39.88
2020-Apr-11 20:09:28 1009.000 - - - - W     39.88
2020-Apr-11 21:09:37 1009.300 - - - - W     39.88
2020-Apr-11 22:09:41 1009.900 - - - - W     39.88
2020-Apr-11 23:09:08 1010.200 - - - - W     39.88

Temperatura Máxima:    Temperatura Mínima:
Presión Máxima:1012.000 Hpa    Presión Mínima:1008.800 Hpa


Volver